If you wish to contribute or participate in the discussions about articles you are invited to join SKYbrary as a registered user

 Actions

Sirri Island Airport

From SKYbrary Wiki

OIBS
Airport
ICAO: OIBS – IATA: SXI
Summary
Name Sirri Island Airport
Region Asia and Pacific
Territory Iran IR.gif
Location Sirri Island, Hormozgan
Serving Sirri Island
Elevation 13.106 m
43 ft
43 ft13.106 m
Coordinates 25° 54' 9.11" N, 54° 32' 45.33" E
Runways
Designator Length Width Surface ROPS
12/30 2544 m8,346.457 ft
53 m173.885 ft
ASP /


METAR
Observation OIBS 250900Z 07006KT 6000 NSC 26/22 Q1014
Station Sirri Island / Sirri
Date/Time 25 February 2020 09:00:00
Wind direction 70°
Wind speed 06 kts
Lowest cloud amount nil significant cloud
Temperature 26°C
Dew point 22°C
Humidity 78%
QNH 1014 hPa
Weather condition n/a

Sirri Island Airport is an airport located in Sirri Island, Iran.

Maps

Terrain

Loading map...

Airport Layout

Loading map...


Accidents & Serious Incidents at or in vicinity of OIBS

None on SKYbrary